MFC-Alkoven Außentemperatur Messungen

Zurück zum Überblick

Zeitpunkt Temperatur Luftfeuchte
27.09.2020 18:25:52 12,4 C 74,0%
27.09.2020 18:18:51 12,6 C 74,0%
27.09.2020 18:11:48 12,9 C 74,0%
27.09.2020 18:04:47 13,2 C 73,0%
27.09.2020 17:57:45 13,4 C 72,0%
27.09.2020 17:50:43 13,8 C 71,0%
27.09.2020 17:43:40 14,0 C 70,0%
27.09.2020 17:36:39 14,3 C 70,0%
27.09.2020 17:29:37 14,6 C 70,0%
27.09.2020 17:22:36 14,8 C 70,0%
27.09.2020 17:15:34 14,9 C 68,0%
27.09.2020 17:08:31 15,1 C 67,0%
27.09.2020 17:01:29 15,4 C 66,0%
27.09.2020 16:54:28 15,6 C 65,0%
27.09.2020 16:47:32 15,8 C 64,0%
27.09.2020 16:40:25 15,8 C 63,0%
27.09.2020 16:33:29 16,0 C 64,0%
27.09.2020 16:26:20 16,1 C 63,0%
27.09.2020 16:19:18 16,3 C 63,0%
27.09.2020 16:12:17 16,4 C 61,0%
27.09.2020 16:05:16 16,6 C 62,0%
27.09.2020 15:58:15 16,7 C 62,0%
27.09.2020 15:51:14 16,9 C 60,0%
27.09.2020 15:44:11 17,0 C 60,0%
27.09.2020 15:37:08 17,1 C 59,0%
27.09.2020 15:30:12 17,2 C 58,0%
27.09.2020 15:23:05 17,2 C 57,0%
27.09.2020 15:16:03 17,3 C 58,0%
27.09.2020 15:09:07 17,3 C 58,0%
27.09.2020 15:01:56 17,2 C 60,0%
27.09.2020 14:54:55 17,0 C 59,0%
27.09.2020 14:47:54 17,1 C 60,0%
27.09.2020 14:40:53 17,0 C 61,0%
27.09.2020 14:33:51 17,0 C 60,0%
27.09.2020 14:26:55 17,0 C 59,0%
27.09.2020 14:19:48 17,2 C 59,0%
27.09.2020 14:12:46 17,4 C 59,0%
27.09.2020 14:05:44 17,6 C 59,0%
27.09.2020 13:58:42 17,5 C 57,0%
27.09.2020 13:51:40 17,7 C 58,0%
27.09.2020 13:44:38 17,7 C 60,0%
27.09.2020 13:37:35 17,7 C 59,0%
27.09.2020 13:30:34 17,9 C 60,0%
27.09.2020 13:23:32 17,8 C 58,0%
27.09.2020 13:16:30 17,6 C 59,0%
27.09.2020 13:09:29 17,7 C 59,0%
27.09.2020 13:02:27 17,8 C 62,0%
27.09.2020 12:55:26 17,5 C 61,0%
27.09.2020 12:48:23 17,4 C 60,0%
27.09.2020 12:41:19 17,6 C 61,0%
27.09.2020 12:34:16 17,7 C 62,0%
27.09.2020 12:27:16 17,5 C 63,0%
27.09.2020 12:20:12 17,2 C 63,0%
27.09.2020 12:13:12 16,9 C 64,0%
27.09.2020 12:06:11 16,9 C 62,0%
27.09.2020 11:59:08 16,9 C 63,0%
27.09.2020 11:52:06 16,6 C 64,0%
27.09.2020 11:45:03 16,1 C 64,0%
27.09.2020 11:38:02 16,4 C 64,0%
27.09.2020 11:30:58 16,6 C 64,0%
27.09.2020 11:23:58 16,5 C 65,0%
27.09.2020 11:16:57 16,3 C 66,0%
27.09.2020 11:09:56 16,1 C 66,0%
27.09.2020 11:02:53 15,6 C 68,0%
27.09.2020 10:55:52 15,5 C 67,0%
27.09.2020 10:48:49 15,0 C 69,0%
27.09.2020 10:41:47 14,4 C 68,0%
27.09.2020 10:34:46 14,6 C 68,0%
27.09.2020 10:27:43 14,7 C 68,0%
27.09.2020 10:20:39 14,7 C 70,0%
27.09.2020 10:13:36 14,8 C 71,0%
27.09.2020 10:06:35 14,5 C 71,0%
27.09.2020 09:59:32 14,1 C 71,0%
27.09.2020 09:52:31 14,0 C 73,0%
27.09.2020 09:45:30 13,8 C 72,0%
27.09.2020 09:38:27 13,7 C 74,0%
27.09.2020 09:31:25 13,7 C 74,0%
27.09.2020 09:24:23 13,3 C 75,0%
27.09.2020 09:17:21 13,0 C 75,0%
27.09.2020 09:10:20 12,8 C 75,0%
27.09.2020 09:03:19 12,6 C 76,0%
27.09.2020 08:56:17 12,6 C 76,0%
27.09.2020 08:49:16 12,3 C 77,0%
27.09.2020 08:42:16 12,2 C 78,0%
27.09.2020 08:35:20 11,8 C 80,0%
27.09.2020 08:28:12 11,5 C 80,0%
27.09.2020 08:21:10 11,1 C 80,0%
27.09.2020 08:14:09 10,9 C 83,0%
27.09.2020 08:07:08 10,5 C 84,0%
27.09.2020 08:00:06 10,2 C 84,0%
27.09.2020 07:53:03 9,9 C 87,0%
27.09.2020 07:46:01 9,5 C 87,0%
27.09.2020 07:38:59 9,0 C 87,0%
27.09.2020 07:31:56 8,7 C 88,0%
27.09.2020 07:24:54 8,4 C 88,0%
27.09.2020 07:17:58 8,0 C 89,0%
27.09.2020 07:10:49 7,7 C 89,0%
27.09.2020 07:03:49 7,4 C 89,0%
27.09.2020 06:56:47 7,1 C 89,0%
27.09.2020 06:49:45 7,0 C 89,0%
27.09.2020 06:42:41 7,0 C 88,0%
27.09.2020 06:35:41 7,2 C 88,0%
27.09.2020 06:28:40 8,1 C 86,0%
27.09.2020 06:21:38 7,3 C 88,0%
27.09.2020 06:14:37 6,1 C 91,0%
27.09.2020 06:07:41 4,7 C 91,0%
27.09.2020 06:00:31 4,8 C 92,0%
27.09.2020 05:53:28 4,9 C 92,0%
27.09.2020 05:46:26 5,0 C 92,0%
27.09.2020 05:39:23 5,2 C 92,0%
27.09.2020 05:32:20 5,4 C 91,0%
27.09.2020 05:25:18 5,6 C 92,0%
27.09.2020 05:18:15 5,8 C 92,0%
27.09.2020 05:11:13 6,0 C 91,0%
27.09.2020 05:04:11 6,2 C 91,0%
27.09.2020 04:57:10 6,4 C 91,0%
27.09.2020 04:50:09 6,6 C 91,0%
27.09.2020 04:43:07 6,7 C 91,0%
27.09.2020 04:36:05 6,8 C 91,0%
27.09.2020 04:29:04 6,8 C 92,0%
27.09.2020 04:22:02 7,0 C 91,0%
27.09.2020 04:15:01 6,9 C 92,0%
27.09.2020 04:08:00 6,9 C 92,0%
27.09.2020 04:00:59 6,8 C 92,0%
27.09.2020 03:53:56 6,8 C 92,0%
27.09.2020 03:46:53 6,8 C 91,0%
27.09.2020 03:39:51 6,8 C 91,0%
27.09.2020 03:32:49 6,9 C 91,0%
27.09.2020 03:25:48 6,9 C 91,0%
27.09.2020 03:18:47 7,0 C 91,0%
27.09.2020 03:11:44 7,1 C 91,0%
27.09.2020 03:04:43 7,1 C 91,0%
27.09.2020 02:57:42 7,1 C 91,0%
27.09.2020 02:50:40 7,2 C 91,0%
27.09.2020 02:43:38 7,3 C 91,0%
27.09.2020 02:36:36 7,3 C 91,0%
27.09.2020 02:29:34 7,4 C 91,0%
27.09.2020 02:22:32 7,4 C 91,0%
27.09.2020 02:15:29 7,5 C 91,0%
27.09.2020 02:08:27 7,4 C 91,0%
27.09.2020 02:01:25 7,5 C 91,0%
27.09.2020 01:54:21 7,5 C 91,0%
27.09.2020 01:47:19 7,5 C 91,0%
27.09.2020 01:40:18 7,5 C 90,0%
27.09.2020 01:33:15 7,5 C 90,0%
27.09.2020 01:26:13 7,4 C 91,0%
27.09.2020 01:19:09 7,4 C 90,0%
27.09.2020 01:12:08 7,4 C 90,0%
27.09.2020 01:05:06 7,3 C 90,0%
27.09.2020 00:58:04 7,3 C 90,0%
27.09.2020 00:51:02 7,4 C 89,0%
27.09.2020 00:44:00 7,4 C 88,0%
27.09.2020 00:36:58 7,3 C 88,0%
27.09.2020 00:29:57 7,4 C 88,0%
27.09.2020 00:22:54 7,5 C 87,0%
27.09.2020 00:15:53 7,5 C 88,0%
27.09.2020 00:08:52 7,5 C 87,0%
27.09.2020 00:01:48 7,5 C 88,0%